Location: *
(42.9307°N, 0.9934°E)
Time: 21:27:14
(UTC+00:00)

Daily predictions for brighter satellites

Satellite Brightness Start Highest point End
(mag) Time Altitude Azimuth Time Altitude Azimuth Time Altitude Azimuth
Cosmos 2315 Rocket 4.1 20:00:39 10° S 20:06:55 67° E 20:13:08 10° NNE
SJ-6B 4.2 20:05:37 10° SSW 20:09:14 39° W 20:12:57 10° NNW
Ariane Rocket 3.5 20:07:35 10° SE 20:12:25 45° ENE 20:17:16 10° N
Cosmos 1954 Rocket 4.1 20:13:17 10° NNW 20:18:35 90° SW 20:23:47 10° SSE
Cosmos 1544 Rocket 3.8 20:16:21 10° N 20:20:36 53° E 20:24:52 10° SSE
Lacrosse 5 rocket 2.7 20:17:54 10° WNW 20:21:19 30° SW 20:24:53 10° S
Cosmos 1656 4.0 20:17:27 10° NNW 20:22:49 52° ENE 20:28:12 10° SE
GEOS 3 Rocket 3.6 20:17:46 10° SE 20:22:51 81° NE 20:28:00 10° NW
ATLAS 2AS CENTAUR R/B 2.8 20:22:06 10° NW 20:29:11 79° WSW 20:35:46 10° SSE
MetOp-B 4.4 20:24:27 10° SSE 20:29:40 56° ENE 20:34:55 10° N
PSLV R/B 4.0 20:28:59 10° NNE 20:33:10 84° WNW 20:37:20 10° SSW
USA 32 4.0 20:28:37 10° S 20:33:48 74° E 20:39:01 10° N
Cosmos 1980 Rocket 4.0 20:30:03 10° N 20:34:03 19° NE 20:38:01 10° E
Cosmos 1697 Rocket 3.7 20:29:42 10° N 20:34:45 33° NE 20:39:32 11° ESE
SL-8 R/B 4.1 20:31:27 10° WNW 20:36:13 61° NNE 20:40:59 10° E
TSX-5 4.3 20:32:30 10° SSW 20:36:52 85° ESE 20:42:37 10° NNE
SPOT 1/Viking Rocket 3.6 20:34:52 10° SSE 20:40:00 84° WSW 20:45:13 10° NNW
COSMOS 2406 4.1 20:36:56 10° SSE 20:41:45 28° ESE 20:46:34 10° NE
Spot 2 Rocket 4.3 20:38:47 12° SE 20:42:58 36° ENE 20:47:38 10° N
Cosmos 1025 Rocket 4.2 20:39:30 10° SSW 20:43:36 44° WNW 20:47:44 10° N
X-37B 0.8 20:41:27 10° WNW 20:44:14 57° N 20:47:00 10° E
NOSS 2-1 (E) 4.5 20:43:58 10° NW 20:48:52 70° SW 20:55:09 13° SSE
SPOT 5 3.3 20:49:45 15° SE 20:52:55 39° ENE 20:56:56 10° N
Cosmos 1703 3.3 20:51:13 11° S 20:54:48 56° E 20:58:35 10° NNE
Cosmos 1452 Rocket 3.6 20:52:14 10° SSW 20:57:29 86° WNW 21:02:47 10° NNE
Cosmos 1833 Rocket 2.7 20:52:08 10° S 20:57:40 65° ESE 21:03:14 10° NNE
RESURS DK-1 2.4 20:54:21 10° NNW 20:58:30 68° ENE 21:01:19 19° SE
Delta 2 Rocket 4.0 20:56:24 10° SW 20:59:07 23° S 20:59:56 21° SSE
Terra 2.8 20:56:28 16° SE 20:59:38 34° ENE 21:03:54 10° N
CZ-4B R/B 2.6 21:00:32 10° N 21:03:14 36° WNW 21:05:54 10° SW
Cosmos 1110 Rocket 4.0 20:58:16 10° S 21:03:29 68° ESE 21:08:46 10° NNE
Helios 1A Rocket 3.4 21:01:06 19° SE 21:03:41 45° ENE 21:07:36 10° N
ERS-1 Rocket 3.3 21:02:33 18° SE 21:06:06 51° ENE 21:10:59 10° N
Resurs 01 Rocket 3.0 21:02:33 10° SSW 21:06:37 35° W 21:10:44 10° NNW
Cosmos 2228 3.0 21:08:29 10° N 21:12:41 63° E 21:15:16 22° SSE
Cosmos 1408 4.2 21:16:14 17° E 21:16:29 17° E 21:18:50 10° NE
Cosmos 2184 Rocket 4.0 21:10:33 10° N 21:16:47 88° E 21:21:54 16° S
Lacrosse 5 3.4 21:14:23 10° WNW 21:18:39 27° WSW 21:22:05 14° S
Cosmos 968 Rocket 4.4 21:18:52 10° N 21:23:43 37° ENE 21:26:36 21° ESE
Cosmos 1900 4.5 21:18:35 10° NNW 21:23:45 72° ENE 21:26:45 25° SE
Cosmos 1328 4.0 21:22:06 26° SSE 21:24:03 51° E 21:27:57 10° NNE
Cosmos 2082 Rocket 2.4 21:27:22 18° S 21:31:30 50° ESE 21:37:00 10° NE
Cosmos 2360 4.2 21:26:38 10° NNW 21:32:25 87° ENE 21:35:50 26° SSE
USA 245 4.1 21:30:03 17° S 21:33:01 44° WSW 21:36:23 10° NNW
Cosmos 1867 4.4 21:27:56 10° NNW 21:33:07 41° NE 21:36:30 20° ESE
ARIANE 5 R/B 2.8 21:35:43 30° SE 21:37:44 57° ENE 21:42:04 10° N
USA 267 3.6 21:32:43 10° ENE 21:38:46 39° SE 21:44:46 10° SSW
Cosmos 1606 Rocket 3.4 21:37:05 10° N 21:41:25 84° E 21:43:23 32° SSE
Meteor 1-21 Rocket 4.4 21:36:53 11° SSW 21:42:11 75° W 21:47:54 10° N
GP-B 4.1 21:38:31 10° NNE 21:42:29 31° E 21:43:34 28° ESE
Cosmos 2341 Rocket 4.4 21:37:44 10° N 21:43:51 50° ENE 21:47:01 27° SE
Cosmos 192 4.2 21:43:00 17° SSW 21:46:43 84° ESE 21:51:39 10° NNE
Okean 1-7 Rocket 4.4 21:58:40 32° ESE 21:59:21 33° E 22:03:23 10° NNE
Cosmos 1892 2.7 22:02:06 53° SE 22:02:34 59° E 22:06:18 10° NNE
SAR-Lupe-1 4.2 21:59:58 10° NNE 22:03:29 53° E 22:03:38 53° ESE
Cosmos 1726 Rocket 3.6 21:59:49 10° NNW 22:04:08 72° W 22:05:41 38° S
Cosmos 2181 Rocket 4.1 22:07:21 33° SSE 22:09:58 58° E 22:16:04 10° NNE
USA 234 4.5 22:06:34 10° E 22:12:28 38° NNE 22:18:24 10° NW
Cosmos 962 Rocket 4.5 22:07:43 10° N 22:14:00 84° W 22:17:08 32° S
Cosmos 1992 Rocket 4.0 22:15:19 41° SSE 22:16:53 59° ESE 22:22:03 10° NNE
SL-16 R/B 3.5 22:13:33 10° N 22:18:33 31° NE 22:21:23 20° E
Cosmos 1932 4.3 22:13:39 17° SSW 22:18:38 82° ESE 22:24:58 10° NE
SL-8 R/B 4.1 22:14:07 10° WNW 22:18:40 43° SW 22:19:18 41° SSW
Cosmos 1980 Rocket 2.2 22:13:01 10° NNW 22:18:44 78° WSW 22:20:52 40° S
Cosmos 1697 Rocket 3.6 22:13:36 10° NW 22:18:45 38° WSW 22:21:16 25° SSW
Cosmos 1486 Rocket 4.5 22:14:15 10° N 22:19:20 50° ENE 22:21:05 35° ESE
X-37B 2.3 22:16:59 10° W 22:18:14 22° W 22:18:14 22° W
Cosmos 2369 3.9 22:16:39 10° NNW 22:22:20 65° WSW 22:24:30 38° S
COSMOS 2406 4.2 22:20:18 10° SW 22:25:48 45° WNW 22:31:19 10° NNE
ATLAS 5 CENTAUR R/B 1.0 22:29:23 75° SSW 22:29:40 87° ESE 22:33:43 10° NE
Cosmos-2242 4.3 22:27:10 10° NNE 22:30:45 26° ENE 22:31:12 26° E
Cosmos 1602 Rocket 4.1 22:32:11 41° E 22:32:18 41° E 22:36:22 10° NNE
In-Cosmos 22 Rocket 4.1 22:30:23 39° S 22:32:33 89° E 22:38:01 10° N
Cosmos 1869 3.2 22:31:07 10° N 22:35:00 66° E 22:35:09 66° E
Cosmos 2084 Rocket 4.2 22:32:49 10° NW 22:36:27 35° WSW 22:36:30 35° WSW
Terra 3.4 22:35:21 20° SW 22:37:23 27° W 22:41:25 10° NW
ALOS 2 3.8 22:39:49 28° E 22:40:35 30° ENE 22:44:26 10° N
Meteor 1-27 4.1 22:35:20 10° N 22:40:55 88° E 22:42:35 48° SSE
FALCON 9 DEB 4.0 22:39:06 10° NW 22:42:14 41° NNE 22:42:17 41° NNE
ASTEX 1 3.8 22:39:01 10° N 22:43:56 57° W 22:45:50 35° SW
ADEOS Rocket 4.0 22:45:43 30° SE 22:49:13 52° ENE 22:56:37 10° N
Cosmos 1825 2.3 22:49:40 63° W 22:49:46 63° W 22:53:30 10° N
SL-8 Rocket 4.2 22:44:27 10° NNW 22:50:35 62° W 22:53:01 37° SSW
Cosmos 1408 4.3 22:50:12 22° W 22:50:59 24° WNW 22:53:50 10° NNW
Cosmos 2058 Rocket 4.1 22:47:29 10° NNW 22:51:36 38° W 22:52:35 33° WSW
Cosmos 2322 Rocket 3.1 22:48:48 10° NNW 22:54:10 41° ENE 22:56:24 29° ESE
Cosmos 1626 Rocket 3.6 22:54:44 59° SW 22:55:20 69° W 22:59:41 10° N
Cosmos 1503 Rocket 4.2 22:52:07 10° NNW 22:57:24 64° ENE 22:58:35 49° ESE
USA 276 3.7 23:00:27 10° NW 23:02:49 33° N 23:02:49 33° N
Cosmos 2278 4.0 22:59:25 10° NNW 23:05:00 56° WSW 23:06:17 46° SSW
Cosmos 1825 Rocket 4.2 23:08:18 42° E 23:08:18 42° E 23:12:10 10° NNE
Cosmos 2333 Rocket 4.0 23:04:32 10° N 23:09:09 24° NE 23:12:52 13° E
Cosmos 2366 rocket 4.5 23:03:31 10° NNW 23:09:40 53° W 23:12:00 36° SW
Gbstr 26 Del rocket 3.9 23:11:09 37° E 23:11:09 37° E 23:14:27 10° ENE
SJ 16-02 1.7 23:07:37 10° N 23:11:58 53° ENE 23:12:19 51° E
Cosmos 1340 Rocket 4.2 23:13:04 27° ENE 23:13:04 27° ENE 23:15:48 10° NNE
Meteor 2-20 4.3 23:13:52 49° S 23:15:39 90° E 23:21:47 10° N
Cosmos 2082 Rocket 4.1 23:11:03 10° WSW 23:15:51 27° NW 23:20:39 10° N
Cosmos 1867 4.5 23:11:45 10° NW 23:16:36 33° WSW 23:17:08 33° SW
H-2A R/B 3.4 23:16:47 10° NNE 23:20:55 84° ENE 23:20:55 84° ENE
USA 267 3.6 23:15:30 10° NE 23:21:59 66° NW 23:28:25 10° WSW
Cosmos 2058 3.1 23:26:08 60° ENE 23:26:08 60° ENE 23:29:58 10° NNE
Cosmos 2221 4.0 23:24:09 10° NNE 23:27:54 27° ENE 23:28:17 26° E
Spot 4 4.1 23:27:39 53° WSW 23:28:05 55° W 23:32:48 10° NNW
Cosmos 1606 3.0 23:24:52 10° N 23:28:16 66° N 23:28:16 66° N
Cosmos 2360 Rocket 2.8 23:24:35 10° NNW 23:30:08 50° ENE 23:32:00 36° ESE
Cosmos 1934 Rocket 4.2 23:25:25 10° N 23:31:24 57° ENE 23:33:06 43° SE
Cosmos 1833 4.3 23:39:57 54° SE 23:40:28 56° ESE 23:45:56 10° NNE
Cosmos 44 3.6 23:41:21 49° E 23:41:21 49° E 23:45:09 10° NE
Meteor 2-2 Rocket 4.4 23:37:07 10° N 23:43:10 78° E 23:44:36 54° SSE
Meteor 2-20 Rocket 4.4 23:42:26 50° SSW 23:44:04 77° W 23:50:13 10° N
Cosmos 1633 4.3 23:45:56 24° WNW 23:45:56 24° WNW 23:48:32 10° NNW
Cosmos 2237 4.1 23:40:06 10° NNW 23:45:52 82° WSW 23:46:53 62° S
Cosmos 1758 Rocket 4.4 23:45:44 38° W 23:46:09 39° WNW 23:50:18 10° N
Cosmos 1339 Rocket 4.5 23:50:04 53° SSE 23:51:31 71° E 23:57:38 10° NNE
